Regional Weather Roundup
Issued by NWS

Home | Current Version | Previous Version | Text Only | Print | Product List | Glossary On
Versions: 1 2 3 4 5 6 7 8 9 10 11 12 13 14 15 16 17 18 19 20 21 22 23 24 25 26 27 28 29 30 31 32 33 34 35 36 37 38 39 40 41 42 43 44 45 46 47 48 49 50
000
ASUS43 KBIS 260431
RWRND
NORTH DAKOTA REGIONAL WEATHER ROUNDUP
NATIONAL WEATHER SERVICE EASTERN NORTH DAKOTA/GRAND FORKS ND
1100 PM CDT SUN JUN 25 2017

  NOTE: "FAIR" INDICATES FEW OR NO CLOUDS BELOW 12,000 FEET WITH NO
  SIGNIFICANT WEATHER AND/OR OBSTRUCTIONS TO VISIBILITY.

NDZ001>003-009>011-017-260500-
...NORTHWEST NORTH DAKOTA...

CITY           SKY/WX    TMP DP  RH WIND       PRES   REMARKS
WILLISTON      FAIR      60  45  57 E3        30.23R
MINOT          FAIR      53  40  61 CALM      30.24R
MINOT AFB      FAIR      54  40  60 CALM      30.23R
$$

NDZ018>021-031>035-040>046-260500-
...SOUTHWEST NORTH DAKOTA...

CITY           SKY/WX    TMP DP  RH WIND       PRES   REMARKS
BISMARCK       FAIR      53  45  74 E3        30.25R
DICKINSON      FAIR      52  39  61 E9        30.22S
GARRISON         N/A     56  41  57 E7        30.24R
HETTINGER      FAIR      56  40  55 E9        30.25R
$$

NDZ004>008-012>016-024-026-027-054-260500-
...NORTHEAST NORTH DAKOTA...

CITY           SKY/WX    TMP DP  RH WIND       PRES   REMARKS
GRAND FORKS    FAIR      50  43  77 W5        30.20R
GRAND FORKS AF FAIR      45  42  90 W3        30.21R
DEVILS LAKE    FAIR      50  41  71 CALM      30.24R
$$

NDZ022-023-025-028>030-036>039-047>053-260500-
...SOUTHEAST NORTH DAKOTA...

CITY           SKY/WX    TMP DP  RH WIND       PRES   REMARKS
JAMESTOWN      FAIR      49  41  74 N6        30.23R
FARGO          FAIR      52  39  61 N6        30.20R
WAHPETON       FAIR      54  39  58 N6        30.19S
$$




USA.gov is the U.S. government's official web portal to all federal, state and local government web resources and services.